Time,TemperatureF,DewpointF,PressureIn,WindDirection,WindDirectionDegrees,WindSpeedMPH,WindSpeedGustMPH,Humidity,HourlyPrecipIn,Conditions,Clouds,dailyrainin,SolarRadiationWatts/m^2,SoftwareType,DateUTC
2013-10-16 00:02:00,60.0,57.0,-100.00,NE,39,3.0,6.0,91,0.05,,,1.47,0.000000,,2013-10-16 05:02:00,
2013-10-16 00:43:00,60.0,57.0,-100.00,NE,39,3.0,6.0,91,0.05,,,1.47,0.000000,,2013-10-16 05:43:00,
2013-10-16 00:53:00,60.0,57.0,-100.00,NE,39,3.0,6.0,91,0.05,,,1.47,0.000000,,2013-10-16 05:53:00,
2013-10-16 01:02:00,58.0,55.0,-100.00,NNW,328,4.0,7.0,91,0.05,,,1.52,0.000000,,2013-10-16 06:02:00,
2013-10-16 01:43:00,58.0,55.0,-100.00,NNW,328,4.0,7.0,91,0.05,,,1.52,0.000000,,2013-10-16 06:43:00,
2013-10-16 01:52:00,58.0,55.0,-100.00,NNW,328,4.0,7.0,91,0.05,,,1.52,0.000000,,2013-10-16 06:52:00,
2013-10-16 02:02:00,57.0,54.0,-100.00,NNE,23,4.0,10.0,90,0.03,,,1.55,0.000000,,2013-10-16 07:02:00,
2013-10-16 02:42:00,57.0,54.0,-100.00,NNE,23,4.0,10.0,90,0.03,,,1.55,0.000000,,2013-10-16 07:42:00,
2013-10-16 02:53:00,57.0,54.0,-100.00,NNE,23,4.0,10.0,90,0.03,,,1.55,0.000000,,2013-10-16 07:53:00,
2013-10-16 03:02:00,55.0,52.0,-100.00,NNE,16,3.0,11.0,90,0.07,,,1.62,0.000000,,2013-10-16 08:02:00,
2013-10-16 03:22:00,55.0,52.0,-100.00,NNE,16,3.0,11.0,90,0.07,,,1.62,0.000000,,2013-10-16 08:22:00,
2013-10-16 03:32:00,55.0,52.0,-100.00,NNE,16,3.0,11.0,90,0.07,,,1.62,0.000000,,2013-10-16 08:32:00,
2013-10-16 03:42:00,55.0,52.0,-100.00,NNE,16,3.0,11.0,90,0.07,,,1.62,0.000000,,2013-10-16 08:42:00,
2013-10-16 03:52:00,55.0,52.0,-100.00,NNE,16,3.0,11.0,90,0.07,,,1.62,0.000000,,2013-10-16 08:52:00,
2013-10-16 04:02:00,55.0,52.0,-100.00,NNW,346,4.0,11.0,89,0.02,,,1.63,0.000000,,2013-10-16 09:02:00,
2013-10-16 04:43:00,55.0,52.0,-100.00,NNW,346,4.0,11.0,89,0.02,,,1.63,0.000000,,2013-10-16 09:43:00,
2013-10-16 04:54:00,55.0,52.0,-100.00,NNW,346,4.0,11.0,89,0.02,,,1.63,0.000000,,2013-10-16 09:54:00,
2013-10-16 05:02:00,54.0,50.0,-100.00,NNE,12,4.0,10.0,87,0.00,,,1.63,0.000000,,2013-10-16 10:02:00,
2013-10-16 05:42:00,54.0,50.0,-100.00,NNE,12,4.0,10.0,87,0.00,,,1.63,0.000000,,2013-10-16 10:42:00,
2013-10-16 05:53:00,54.0,50.0,-100.00,NNE,12,4.0,10.0,87,0.00,,,1.63,0.000000,,2013-10-16 10:53:00,
2013-10-16 06:02:00,54.0,50.0,-100.00,NNE,26,3.0,7.0,87,0.02,,,1.65,0.000000,,2013-10-16 11:02:00,
2013-10-16 06:42:00,54.0,50.0,-100.00,NNE,26,3.0,7.0,87,0.02,,,1.65,0.000000,,2013-10-16 11:42:00,
2013-10-16 06:52:00,54.0,50.0,-100.00,NNE,26,3.0,7.0,87,0.02,,,1.65,0.000000,,2013-10-16 11:52:00,
2013-10-16 07:43:00,54.0,51.0,-100.00,South,188,1.0,7.0,89,0.00,,,1.53,0.000000,,2013-10-16 12:43:00,
2013-10-16 07:52:00,54.0,51.0,-100.00,South,188,1.0,7.0,89,0.00,,,1.53,0.000000,,2013-10-16 12:52:00,
2013-10-16 08:01:00,54.0,51.0,-100.00,South,188,1.0,7.0,89,0.00,,,1.53,0.000000,,2013-10-16 13:01:00,
2013-10-16 08:42:00,54.0,51.0,-100.00,West,268,3.0,5.0,90,0.02,,,1.49,2.000000,,2013-10-16 13:42:00,
2013-10-16 08:52:00,54.0,51.0,-100.00,West,268,3.0,5.0,90,0.02,,,1.49,2.000000,,2013-10-16 13:52:00,
2013-10-16 09:01:00,54.0,51.0,-100.00,West,268,3.0,5.0,90,0.02,,,1.49,2.000000,,2013-10-16 14:01:00,
2013-10-16 09:02:00,54.0,51.0,-100.00,NNW,339,2.0,9.0,90,0.01,,,1.47,17.000000,,2013-10-16 14:02:00,
2013-10-16 09:42:00,54.0,51.0,-100.00,NNW,339,2.0,9.0,90,0.01,,,1.47,17.000000,,2013-10-16 14:42:00,
2013-10-16 09:52:00,54.0,51.0,-100.00,NNW,339,2.0,9.0,90,0.01,,,1.47,17.000000,,2013-10-16 14:52:00,
2013-10-16 10:02:00,56.0,53.0,-100.00,NE,42,3.0,5.0,90,0.02,,,1.45,74.000000,,2013-10-16 15:02:00,
2013-10-16 10:43:00,56.0,53.0,-100.00,NE,42,3.0,5.0,90,0.02,,,1.45,74.000000,,2013-10-16 15:43:00,
2013-10-16 10:53:00,56.0,53.0,-100.00,NE,42,3.0,5.0,90,0.02,,,1.45,74.000000,,2013-10-16 15:53:00,
2013-10-16 11:02:00,56.0,53.0,-100.00,North,352,3.0,6.0,89,0.02,,,1.47,96.000000,,2013-10-16 16:02:00,
2013-10-16 11:23:00,56.0,53.0,-100.00,North,352,3.0,6.0,89,0.02,,,1.47,96.000000,,2013-10-16 16:23:00,
2013-10-16 11:32:00,56.0,53.0,-100.00,North,352,3.0,6.0,89,0.02,,,1.47,96.000000,,2013-10-16 16:32:00,
2013-10-16 11:42:00,56.0,53.0,-100.00,North,352,3.0,6.0,89,0.02,,,1.47,96.000000,,2013-10-16 16:42:00,
2013-10-16 11:53:00,56.0,53.0,-100.00,North,352,3.0,6.0,89,0.02,,,1.47,96.000000,,2013-10-16 16:53:00,
2013-10-16 12:02:00,56.0,53.0,-100.00,North,353,3.0,6.0,90,0.05,,,1.32,112.000000,,2013-10-16 17:02:00,
2013-10-16 12:22:00,56.0,53.0,-100.00,North,353,3.0,6.0,90,0.05,,,1.32,112.000000,,2013-10-16 17:22:00,
2013-10-16 12:33:00,56.0,53.0,-100.00,North,353,3.0,6.0,90,0.05,,,1.32,112.000000,,2013-10-16 17:33:00,
2013-10-16 12:43:00,56.0,53.0,-100.00,North,353,3.0,6.0,90,0.05,,,1.32,112.000000,,2013-10-16 17:43:00,
2013-10-16 12:52:00,56.0,53.0,-100.00,North,353,3.0,6.0,90,0.05,,,1.32,112.000000,,2013-10-16 17:52:00,
2013-10-16 13:02:00,57.0,54.0,-100.00,North,356,2.0,5.0,89,0.02,,,1.05,161.000000,,2013-10-16 18:02:00,
2013-10-16 13:42:00,57.0,54.0,-100.00,North,356,2.0,5.0,89,0.02,,,1.05,161.000000,,2013-10-16 18:42:00,
2013-10-16 13:52:00,57.0,54.0,-100.00,North,356,2.0,5.0,89,0.02,,,1.05,161.000000,,2013-10-16 18:52:00,
2013-10-16 14:02:00,58.0,54.0,-100.00,NNE,18,3.0,7.0,87,0.00,,,0.89,243.000000,,2013-10-16 19:02:00,
2013-10-16 14:22:00,58.0,54.0,-100.00,NNE,18,3.0,7.0,87,0.00,,,0.89,243.000000,,2013-10-16 19:22:00,
2013-10-16 14:32:00,58.0,54.0,-100.00,NNE,18,3.0,7.0,87,0.00,,,0.89,243.000000,,2013-10-16 19:32:00,
2013-10-16 14:42:00,58.0,54.0,-100.00,NNE,18,3.0,7.0,87,0.00,,,0.89,243.000000,,2013-10-16 19:42:00,
2013-10-16 14:52:00,58.0,54.0,-100.00,NNE,18,3.0,7.0,87,0.00,,,0.89,243.000000,,2013-10-16 19:52:00,
2013-10-16 15:02:00,59.0,55.0,-100.00,NNE,33,2.0,6.0,87,0.00,,,0.87,187.000000,,2013-10-16 20:02:00,
2013-10-16 15:22:00,59.0,55.0,-100.00,NNE,33,2.0,6.0,87,0.00,,,0.87,187.000000,,2013-10-16 20:22:00,
2013-10-16 15:32:00,59.0,55.0,-100.00,NNE,33,2.0,6.0,87,0.00,,,0.87,187.000000,,2013-10-16 20:32:00,
2013-10-16 15:43:00,59.0,55.0,-100.00,NNE,33,2.0,6.0,87,0.00,,,0.87,187.000000,,2013-10-16 20:43:00,
2013-10-16 15:52:00,59.0,55.0,-100.00,NNE,33,2.0,6.0,87,0.00,,,0.87,187.000000,,2013-10-16 20:52:00,
2013-10-16 16:02:00,58.0,55.0,-100.00,NNW,339,3.0,6.0,89,0.01,,,0.81,116.000000,,2013-10-16 21:02:00,
2013-10-16 16:23:00,58.0,55.0,-100.00,NNW,339,3.0,6.0,89,0.01,,,0.81,116.000000,,2013-10-16 21:23:00,
2013-10-16 16:34:00,58.0,55.0,-100.00,NNW,339,3.0,6.0,89,0.01,,,0.81,116.000000,,2013-10-16 21:34:00,
2013-10-16 16:44:00,58.0,55.0,-100.00,NNW,339,3.0,6.0,89,0.01,,,0.81,116.000000,,2013-10-16 21:44:00,
2013-10-16 16:54:00,58.0,55.0,-100.00,NNW,339,3.0,6.0,89,0.01,,,0.81,116.000000,,2013-10-16 21:54:00,
2013-10-16 17:02:00,57.0,54.0,-100.00,NW,306,4.0,9.0,90,0.00,,,0.76,99.000000,,2013-10-16 22:02:00,
2013-10-16 17:42:00,57.0,54.0,-100.00,NW,306,4.0,9.0,90,0.00,,,0.76,99.000000,,2013-10-16 22:42:00,
2013-10-16 17:54:00,57.0,54.0,-100.00,NW,306,4.0,9.0,90,0.00,,,0.76,99.000000,,2013-10-16 22:54:00,
2013-10-16 18:02:00,56.0,53.0,-100.00,WNW,303,4.0,7.0,90,0.01,,,0.74,44.000000,,2013-10-16 23:02:00,
2013-10-16 18:42:00,56.0,53.0,-100.00,WNW,303,4.0,7.0,90,0.01,,,0.74,44.000000,,2013-10-16 23:42:00,
2013-10-16 18:53:00,56.0,53.0,-100.00,WNW,303,4.0,7.0,90,0.01,,,0.74,44.000000,,2013-10-16 23:53:00,
2013-10-16 19:02:00,55.0,52.0,-100.00,NNE,28,1.0,9.0,89,0.05,,,0.77,6.000000,,2013-10-17 00:02:00,
2013-10-16 19:42:00,55.0,52.0,-100.00,NNE,28,1.0,9.0,89,0.05,,,0.77,6.000000,,2013-10-17 00:42:00,
2013-10-16 19:52:00,55.0,52.0,-100.00,NNE,28,1.0,9.0,89,0.05,,,0.77,6.000000,,2013-10-17 00:52:00,
2013-10-16 20:02:00,55.0,52.0,-100.00,WNW,300,2.0,4.0,90,0.00,,,0.69,0.000000,,2013-10-17 01:02:00,
2013-10-16 20:43:00,55.0,52.0,-100.00,WNW,300,2.0,4.0,90,0.00,,,0.69,0.000000,,2013-10-17 01:43:00,
2013-10-16 20:52:00,55.0,52.0,-100.00,WNW,300,2.0,4.0,90,0.00,,,0.69,0.000000,,2013-10-17 01:52:00,
2013-10-16 21:02:00,55.0,52.0,-100.00,West,265,2.0,3.0,91,0.00,,,0.62,0.000000,,2013-10-17 02:02:00,
2013-10-16 21:53:00,55.0,52.0,-100.00,West,265,2.0,3.0,91,0.00,,,0.62,0.000000,,2013-10-17 02:53:00,
2013-10-16 22:02:00,56.0,53.0,-100.00,West,272,3.0,4.0,91,0.00,,,0.58,0.000000,,2013-10-17 03:02:00,
2013-10-16 22:22:00,56.0,53.0,-100.00,West,272,3.0,4.0,91,0.00,,,0.58,0.000000,,2013-10-17 03:22:00,
2013-10-16 22:34:00,56.0,53.0,-100.00,West,272,3.0,4.0,91,0.00,,,0.58,0.000000,,2013-10-17 03:34:00,
2013-10-16 22:44:00,56.0,53.0,-100.00,West,272,3.0,4.0,91,0.00,,,0.58,0.000000,,2013-10-17 03:44:00,
2013-10-16 22:54:00,56.0,53.0,-100.00,West,272,3.0,4.0,91,0.00,,,0.58,0.000000,,2013-10-17 03:54:00,
2013-10-16 23:02:00,55.0,52.0,-100.00,WNW,291,3.0,5.0,91,0.00,,,0.45,0.000000,,2013-10-17 04:02:00,
2013-10-16 23:43:00,55.0,52.0,-100.00,WNW,291,3.0,5.0,91,0.00,,,0.45,0.000000,,2013-10-17 04:43:00,
2013-10-16 23:54:00,55.0,52.0,-100.00,WNW,291,3.0,5.0,91,0.00,,,0.45,0.000000,,2013-10-17 04:54:00,